This demonstration page uses our WeatherBlox Daily Observations layout. Learn more.

Left ArrowRight Arrow

44.89941, -97.11507

Hourly Observations for November 12, 2020

Temp ( °F °C ) Dew Point ( °F °C ) Humidity (%) Winds ( mph kmh ) Pressure ( in mb ) Visibility ( mi km ) Precip ( " mm )
12:53 am 00:53 Clear 27 -2.8 18 -7.8 69 69 NW 14 22 30.01 1016 10 16 0.00 0.00
1:53 am 01:53 Cloudy 27 -2.8 17 -8.3 66 66 W 10 17 30.06 1018 10 16 0.00 0.00
2:53 am 02:53 Cloudy 27 -2.8 17 -8.3 66 66 WNW 14 22 30.05 1018 10 16 0.00 0.00
3:53 am 03:53 Cloudy 26 -3.3 18 -7.8 71 71 WNW 14 22 30.05 1018 10 16 0.00 0.00
4:53 am 04:53 Cloudy 24 -4.4 19 -7.2 81 81 NW 12 19 30.05 1018 10 16 0.00 0.00
5:53 am 05:53 Cloudy 24 -4.4 18 -7.8 77 77 WNW 12 19 30.08 1019 10 16 0.00 0.00
6:03 am 06:03 Cloudy 24 -4.4 18 -7.8 77 77 WNW 12 19 30.12 1020 10 16 0.00 0.00
6:42 am 06:42 Cloudy 22 -5.6 18 -7.8 85 85 WNW 13 20 30.15 1021 10 16 0.00 0.00
6:53 am 06:53 Cloudy 22 -5.6 17 -8.3 82 82 WNW 13 20 30.10 1019 10 16 0.00 0.00
7:53 am 07:53 Mostly Cloudy 21 -6.1 16 -8.9 81 81 WNW 12 19 30.11 1020 10 16 0.00 0.00
8:10 am 08:10 Partly Cloudy 21 -6.1 15 -9.4 78 78 WNW 12 19 30.18 1022 10 16 0.00 0.00
8:53 am 08:53 Mostly Sunny 21 -6.1 15 -9.4 78 78 WNW 13 20 30.14 1021 10 16 0.00 0.00
9:38 am 09:38 Mostly Cloudy 22 -5.6 16 -8.9 78 78 W 12 19 30.19 1022 10 16 0.00 0.00
9:51 am 09:51 Partly Cloudy 21 -6 16 -9 80 80 WNW 10 17 30.19 1022 10 16 0.00 0.00
9:53 am 09:53 Mostly Cloudy 22 -5.6 16 -8.9 78 78 WNW 10 17 30.14 1021 10 16 0.00 0.00
10:03 am 10:03 Mostly Sunny 22 -5.6 15 -9.4 75 75 WNW 13 20 30.19 1022 10 16 0.00 0.00
10:53 am 10:53 Partly Cloudy 21 -6.1 15 -9.4 78 78 WNW 14 22 30.15 1021 10 16 0.00 0.00
11:04 am 11:04 Mostly Cloudy 22 -5.6 15 -9.4 75 75 WNW 13 20 30.20 1023 10 16 0.00 0.00
11:23 am 11:23 Partly Cloudy 21 -6.1 14 -10 74 74 WNW 14 22 30.20 1023 10 16 0.00 0.00
11:53 am 11:53 Mostly Sunny 24 -4.4 14 -10 65 65 W 15 24 30.14 1021 10 16 0.00 0.00
12:53 pm 12:53 Sunny 25 -3.9 14 -10 63 63 WNW 14 22 30.13 1020 10 16 0.00 0.00
1:53 pm 13:53 Sunny 25 -3.9 14 -10 63 63 W 15 24 30.13 1020 10 16 0.00 0.00
2:53 pm 14:53 Sunny 25 -3.9 14 -10 63 63 WNW 16 26 30.13 1020 10 16 0.00 0.00
3:53 pm 15:53 Sunny 25 -3.9 14 -10 63 63 WNW 15 24 30.14 1021 10 16 0.00 0.00
4:53 pm 16:53 Sunny 24 -4.4 13 -10.6 62 62 WNW 12 19 30.16 1022 10 16 0.00 0.00
5:53 pm 17:53 Clear 23 -5 14 -10 68 68 W 10 17 30.18 1022 10 16 0.00 0.00
6:53 pm 18:53 Clear 22 -5.6 14 -10 71 71 W 9 15 30.19 1022 10 16 0.00 0.00
7:53 pm 19:53 Clear 22 -5.6 14 -10 71 71 W 8 13 30.19 1023 10 16 0.00 0.00
8:53 pm 20:53 Clear 16 -8.9 12 -11.1 84 84 WSW 7 11 30.20 1023 10 16 0.00 0.00
9:53 pm 21:53 Clear 18 -7.8 13 -10.6 81 81 WSW 8 13 30.21 1023 10 16 0.00 0.00
10:53 pm 22:53 Clear 16 -8.9 12 -11.1 84 84 SSW 8 13 30.20 1023 10 16 0.00 0.00
11:53 pm 23:53 Clear 17 -8.3 14 -10 88 88 S 7 11 30.19 1022 10 16 0.00 0.00

Powered by AerisWeather